TimeEST,TemperatureF,Dew PointF,Humidity,Sea Level PressureIn,VisibilityMPH,Wind Direction,Wind SpeedMPH,Gust SpeedMPH,PrecipitationIn,Events,Conditions,WindDirDegrees,DateUTC
12:53 AM,27.0,18.0,69,30.46,10.0,NW,6.9,-,N/A,,Clear,320,2013-01-18 05:53:00
1:53 AM,25.0,17.1,72,30.49,10.0,NNW,4.6,-,N/A,,Clear,340,2013-01-18 06:53:00
2:53 AM,25.0,16.0,69,30.51,10.0,North,3.5,-,N/A,,Clear,350,2013-01-18 07:53:00
3:53 AM,23.0,17.1,78,30.52,10.0,Calm,Calm,-,N/A,,Clear,0,2013-01-18 08:53:00
4:53 AM,23.0,17.1,78,30.52,10.0,Calm,Calm,-,N/A,,Clear,0,2013-01-18 09:53:00
5:53 AM,21.0,17.1,85,30.54,10.0,Calm,Calm,-,N/A,,Clear,0,2013-01-18 10:53:00
6:53 AM,21.0,17.1,85,30.54,10.0,Calm,Calm,-,N/A,,Clear,0,2013-01-18 11:53:00
7:53 AM,19.9,17.1,89,30.55,10.0,Calm,Calm,-,N/A,,Clear,0,2013-01-18 12:53:00
8:53 AM,24.1,21.0,88,30.56,10.0,Calm,Calm,-,N/A,,Clear,0,2013-01-18 13:53:00
9:53 AM,27.0,19.0,72,30.57,10.0,South,5.8,-,N/A,,Clear,190,2013-01-18 14:53:00
10:53 AM,30.0,16.0,56,30.58,10.0,SSE,5.8,-,N/A,,Clear,160,2013-01-18 15:53:00
11:53 AM,32.0,18.0,56,30.56,10.0,South,8.1,-,N/A,,Clear,170,2013-01-18 16:53:00
12:53 PM,35.1,16.0,46,30.51,10.0,South,6.9,-,N/A,,Clear,190,2013-01-18 17:53:00
1:53 PM,37.0,17.1,44,30.47,10.0,South,13.8,-,N/A,,Clear,170,2013-01-18 18:53:00
2:53 PM,39.0,18.0,43,30.45,10.0,South,12.7,-,N/A,,Clear,190,2013-01-18 19:53:00
3:53 PM,39.9,19.0,43,30.43,10.0,SSW,11.5,20.7,N/A,,Clear,210,2013-01-18 20:53:00
4:53 PM,39.0,21.0,49,30.41,10.0,South,11.5,-,N/A,,Clear,180,2013-01-18 21:53:00
5:53 PM,37.0,19.9,50,30.39,10.0,South,11.5,-,N/A,,Clear,190,2013-01-18 22:53:00
6:53 PM,35.1,21.9,59,30.38,10.0,South,11.5,-,N/A,,Clear,190,2013-01-18 23:53:00
7:53 PM,35.1,23.0,61,30.37,10.0,South,9.2,-,N/A,,Clear,190,2013-01-19 00:53:00
8:53 PM,33.1,23.0,66,30.35,10.0,SSW,5.8,-,N/A,,Clear,200,2013-01-19 01:53:00
9:53 PM,34.0,23.0,64,30.33,10.0,SW,4.6,-,N/A,,Clear,230,2013-01-19 02:53:00
10:53 PM,32.0,23.0,69,30.30,10.0,SSW,5.8,-,N/A,,Clear,200,2013-01-19 03:53:00
11:53 PM,34.0,23.0,64,30.29,10.0,SSW,8.1,-,N/A,,Clear,210,2013-01-19 04:53:00